Latest Weather Observations for Gold Coast Seaway

IDQ60801

Issued at 2:05 pm EST Sunday 20 April 2014 (issued every 30 minutes, with the page automatically refreshed every 10 minutes)

About weather observations | Map of weather stations | Latest weather observations for QLD | Other Formats
Station Details ID: 040764 Name: GOLD COAST SEAWAY Lat: -27.94 Lon: 153.43 Height: 2.98 m
Data from the previous 72 hours. | See also: Recent months at Gold Coast Seaway
Date/Time
EST
Temp
°C
App
Temp
°C
Dew
Point
Rel
Hum
%
Delta-T
°C
Wind Press
QNH
hPa
Press
MSL
hPa
Rain
since 9 am
mm
Dir
 
Spd
km/h
Gust
km/h
Spd
kts
Gust
kts
20/02:00pm 26.3 24.4 16.8 56 5.9 NE 22 26 12 14 1015.8 - 0.0
20/01:30pm 26.5 25.0 16.7 55 6.1 NE 20 24 11 13 1015.8 - 0.0
20/01:00pm 26.8 25.7 16.4 53 6.4 NE 17 20 9 11 1016.1 - 0.0
20/12:30pm 26.9 25.9 16.5 53 6.4 NE 17 20 9 11 1016.4 - 0.0
20/12:00pm 25.4 23.9 15.4 54 6.0 NE 17 19 9 10 1016.9 1016.9 0.0
20/11:30am 27.0 26.2 16.0 51 6.8 ENE 15 17 8 9 1017.4 - 0.0
20/11:00am 26.8 26.4 15.2 49 7.0 ENE 11 13 6 7 1017.7 - 0.0
20/10:30am 26.0 25.5 14.8 50 6.7 ENE 11 13 6 7 1018.1 - 0.0
20/10:00am 26.4 27.0 15.8 52 6.5 NW 7 9 4 5 1018.3 - 0.0
20/09:30am 25.6 25.9 14.4 50 6.7 W 6 7 3 4 1018.3 - 0.0
20/09:00am 24.2 23.9 13.4 51 6.3 W 7 7 4 4 1018.3 1018.3 0.0
20/08:30am 22.8 22.2 13.6 56 5.3 W 9 11 5 6 1018.2 - 0.0
20/08:00am 21.2 20.9 13.4 61 4.5 WSW 7 11 4 6 1018.0 - 0.0
20/07:30am 19.8 19.3 13.7 68 3.5 WSW 9 13 5 7 1017.8 - 0.0
20/07:00am 18.3 17.3 13.4 73 2.8 WSW 11 13 6 7 1017.4 - 0.0
20/06:30am 17.4 16.7 13.1 76 2.4 SW 9 13 5 7 1017.1 - 0.0
20/06:00am 17.1 16.6 12.8 76 2.4 SSW 7 11 4 6 1016.8 1016.8 0.0
20/05:30am 17.1 15.8 12.6 75 2.5 SW 11 15 6 8 1016.4 - 0.0
20/05:00am 17.4 16.2 12.9 75 2.5 SW 11 13 6 7 1016.2 - 0.0
20/04:30am 17.6 16.0 12.7 73 2.7 SW 13 15 7 8 1016.0 - 0.0
20/04:00am 17.6 16.0 12.7 73 2.7 SW 13 17 7 9 1015.8 - 0.0
20/03:30am 17.5 15.8 12.6 73 2.7 SW 13 15 7 8 1015.8 - 0.0
20/03:00am 17.6 15.9 12.5 72 2.8 SW 13 17 7 9 1015.7 1015.7 0.0
20/02:30am 17.5 16.2 12.6 73 2.7 SW 11 15 6 8 1015.8 - 0.0
20/02:00am 17.6 16.4 12.7 73 2.7 SW 11 13 6 7 1015.7 - 0.0
20/01:30am 17.8 16.6 12.7 72 2.8 SW 11 13 6 7 1015.9 - 0.0
20/01:00am 18.0 17.1 12.7 71 3.0 SW 9 15 5 8 1016.1 - 0.0
20/12:30am 18.3 17.1 12.7 70 3.1 SW 11 13 6 7 1016.3 - 0.0
20/12:00am 18.5 17.3 12.7 69 3.2 SW 11 15 6 8 1016.4 1016.4 0.0
 
Date/Time
EST
Temp
°C
App
Temp
°C
Dew
Point
Rel
Hum
%
Delta-T
°C
Wind Press
QNH
hPa
Press
MSL
hPa
Rain
since 9 am
mm
Dir
 
Spd
km/h
Gust
km/h
Spd
kts
Gust
kts
19/11:30pm 18.8 17.9 12.5 67 3.5 WSW 9 11 5 6 1016.4 - 0.0
19/11:00pm 18.9 17.9 12.2 65 3.7 WSW 9 11 5 6 1016.4 - 0.0
19/10:30pm 19.2 18.3 12.5 65 3.7 WSW 9 11 5 6 1016.4 - 0.0
19/10:00pm 19.1 18.0 13.1 68 3.4 SW 11 13 6 7 1016.3 - 0.0
19/09:30pm 19.6 18.4 12.8 65 3.8 SW 11 15 6 8 1016.4 - 0.0
19/09:00pm 20.3 20.3 12.5 61 4.4 S 4 9 2 5 1016.2 1016.2 0.0
19/08:30pm 22.4 21.1 12.4 53 5.7 ESE 11 15 6 8 1016.0 - 0.0
19/08:00pm 22.9 21.4 13.1 54 5.6 ESE 13 17 7 9 1015.8 - 0.0
19/07:30pm 23.0 21.2 13.2 54 5.7 ESE 15 20 8 11 1015.6 - 0.0
19/07:00pm 23.1 20.9 13.3 54 5.7 ESE 17 19 9 10 1015.1 - 0.0
19/06:30pm 23.1 20.8 13.0 53 5.8 ESE 17 20 9 11 1014.7 - 0.0
19/06:00pm 23.3 20.3 13.8 55 5.5 SE 22 26 12 14 1014.4 1014.4 0.0
19/05:30pm 23.4 20.5 13.0 52 6.0 SE 20 26 11 14 1014.2 - 0.0
19/05:00pm 23.8 20.7 13.4 52 6.0 ESE 22 28 12 15 1013.9 - 0.0
19/04:30pm 24.4 21.6 13.3 50 6.5 SE 20 26 11 14 1013.5 - 0.0
19/04:00pm 24.9 21.9 13.8 50 6.5 ESE 22 26 12 14 1013.4 - 0.0
19/03:30pm 25.4 22.6 13.3 47 7.1 ESE 20 24 11 13 1013.2 - 0.0
19/03:00pm 25.8 23.1 13.6 47 7.2 ESE 20 28 11 15 1013.2 1013.2 0.0
19/02:30pm 26.2 23.8 13.7 46 7.4 ESE 19 22 10 12 1013.2 - 0.0
19/02:00pm 26.5 24.4 13.6 45 7.6 E 17 20 9 11 1013.2 - 0.0
19/01:30pm 26.7 24.8 14.1 46 7.5 ESE 17 19 9 10 1013.3 - 0.0
19/01:00pm 27.0 25.3 12.6 41 8.4 ESE 13 19 7 10 1013.6 - 0.0
19/12:30pm 26.8 25.3 14.2 46 7.5 E 15 19 8 10 1014.0 - 0.0
19/12:00pm 26.3 24.4 13.1 44 7.7 E 15 17 8 9 1014.3 1014.3 0.0
19/11:30am 26.5 24.8 13.6 45 7.6 E 15 17 8 9 1015.0 - 0.0
19/11:00am 26.1 24.3 13.2 44 7.5 E 15 17 8 9 1015.4 - 0.0
19/10:30am 26.2 25.5 14.3 48 7.1 E 11 13 6 7 1015.8 - 0.0
19/10:00am 26.5 26.5 14.3 47 7.3 W 7 11 4 6 1016.0 - 0.0
19/09:30am 25.6 24.5 10.6 39 8.4 SSW 7 13 4 7 1016.1 - 0.0
19/09:00am 24.3 23.9 12.9 49 6.6 W 7 9 4 5 1016.4 1016.4 0.0
19/08:30am 23.0 22.8 14.6 59 5.0 WNW 9 13 5 7 1016.3 - 0.0
19/08:00am 21.4 20.9 15.0 67 3.8 W 11 13 6 7 1016.2 - 0.0
19/07:30am 20.0 19.9 15.0 73 2.9 W 9 13 5 7 1016.1 - 0.0
19/07:00am 18.7 18.5 15.6 82 1.8 WSW 11 15 6 8 1015.8 - 0.0
19/06:30am 17.9 17.8 16.1 89 1.1 WSW 11 15 6 8 1015.7 - 0.0
19/06:00am 17.5 17.5 16.2 92 0.8 WSW 11 15 6 8 1015.5 1015.5 0.0
19/05:30am 17.6 18.1 16.5 93 0.7 WSW 9 11 5 6 1015.3 - 0.0
19/05:00am 17.5 17.5 16.2 92 0.8 WSW 11 13 6 7 1015.1 - 0.0
19/04:30am 17.6 17.6 16.3 92 0.8 W 11 13 6 7 1014.9 - 0.0
19/04:00am 17.0 17.9 15.2 89 1.0 SW 4 7 2 4 1014.7 - 0.0
19/03:30am 18.0 18.9 16.5 91 0.9 SW 7 9 4 5 1014.8 - 0.0
19/03:00am 18.1 18.8 16.1 88 1.2 SW 7 9 4 5 1015.0 1015.0 0.0
19/02:30am 18.5 19.0 16.5 88 1.2 SW 9 11 5 6 1015.1 - 0.0
19/02:00am 18.2 18.9 16.0 87 1.3 SW 7 9 4 5 1015.2 - 0.0
19/01:30am 18.8 19.2 16.2 85 1.6 WSW 9 11 5 6 1015.3 - 0.0
19/01:00am 18.9 19.7 16.3 85 1.6 SW 7 9 4 5 1015.5 - 0.0
19/12:30am 18.8 19.1 15.9 83 1.7 SW 9 13 5 7 1015.6 - 0.0
19/12:00am 19.1 19.7 15.8 81 2.0 WSW 7 9 4 5 1015.6 1015.6 0.0
 
Date/Time
EST
Temp
°C
App
Temp
°C
Dew
Point
Rel
Hum
%
Delta-T
°C
Wind Press
QNH
hPa
Press
MSL
hPa
Rain
since 9 am
mm
Dir
 
Spd
km/h
Gust
km/h
Spd
kts
Gust
kts
18/11:30pm 19.5 20.4 16.0 80 2.1 WSW 6 7 3 4 1015.7 - 0.0
18/11:00pm 19.8 20.5 16.1 79 2.2 WSW 7 7 4 4 1015.9 - 0.0
18/10:30pm 20.0 20.8 15.8 77 2.5 WSW 6 9 3 5 1016.0 - 0.0
18/10:00pm 20.5 20.8 15.9 75 2.7 WSW 9 11 5 6 1016.1 - 0.0
18/09:30pm 21.3 21.5 15.8 71 3.3 WSW 9 11 5 6 1016.1 - 0.0
18/09:00pm 22.9 23.2 17.8 73 3.2 NE 13 17 7 9 1015.9 1015.9 0.0
18/08:30pm 23.0 23.2 17.7 72 3.3 NE 13 15 7 8 1015.7 - 0.0
18/08:00pm 22.9 23.4 17.4 71 3.4 NE 11 15 6 8 1015.6 - 0.0
18/07:30pm 22.6 22.1 16.9 70 3.5 NE 15 17 8 9 1015.3 - 0.0
18/07:00pm 22.3 21.9 16.3 69 3.6 NE 13 17 7 9 1014.9 - 0.0
18/06:30pm 22.4 22.1 16.4 69 3.6 ENE 13 15 7 8 1014.6 - 0.0
18/06:00pm 22.4 22.0 16.2 68 3.7 ENE 13 15 7 8 1014.4 1014.4 0.0
18/05:30pm 22.5 22.0 15.8 66 4.0 ENE 13 15 7 8 1014.2 - 0.0
18/05:00pm 23.2 22.5 15.5 62 4.6 ENE 13 15 7 8 1014.1 - 0.0
18/04:30pm 24.0 24.1 15.5 59 5.1 ENE 9 13 5 7 1013.8 - 0.0
18/04:00pm 24.3 24.0 15.5 58 5.3 E 11 17 6 9 1013.6 - 0.0
18/03:30pm 24.6 23.9 15.5 57 5.5 E 13 15 7 8 1013.5 - 0.0
18/03:00pm 24.9 23.7 16.1 58 5.4 ESE 17 24 9 13 1013.2 1013.2 0.0
18/02:30pm 25.3 23.9 15.6 55 5.9 E 17 19 9 10 1013.5 - 0.0
18/02:00pm 25.4 24.2 16.0 56 5.7 E 17 22 9 12 1013.6 - 0.0
18/01:30pm 25.8 25.1 16.4 56 5.8 E 15 19 8 10 1013.7 - 0.0
18/01:00pm 25.8 24.4 15.5 53 6.2 E 17 20 9 11 1014.0 - 0.0
18/12:30pm 25.8 25.1 15.5 53 6.2 E 13 15 7 8 1014.4 - 0.0
18/12:00pm 25.6 24.6 14.7 51 6.5 ENE 13 17 7 9 1014.9 1014.9 0.0
18/11:30am 25.7 25.2 14.8 51 6.5 ENE 11 15 6 8 1015.4 - 0.0
18/11:00am 25.4 25.4 14.2 50 6.6 SE 7 9 4 5 1016.0 - 0.0
18/10:30am 25.2 25.0 14.6 51 6.3 SE 9 15 5 8 1016.4 - 0.0
18/10:00am 23.0 22.3 14.3 58 5.1 SSE 11 15 6 8 1016.6 - 0.0
18/09:30am 23.5 22.8 14.2 56 5.5 SSE 11 13 6 7 1016.9 - 0.0
18/09:00am 22.8 22.0 14.1 58 5.1 SSE 11 13 6 7 1017.0 1017.0 0.0
18/08:30am 22.5 22.8 14.9 62 4.5 S 7 11 4 6 1017.1 - 0.0
18/08:00am 20.6 20.9 14.9 70 3.3 SW 7 9 4 5 1017.1 - 0.0
18/07:30am 19.1 19.5 15.2 78 2.3 SSW 7 9 4 5 1017.0 - 0.0
18/07:00am 17.8 18.2 15.4 86 1.4 SSW 7 9 4 5 1016.8 - 0.0
18/06:30am 17.2 17.6 15.4 89 1.1 WSW 7 9 4 5 1016.5 - 0.0
18/06:00am 16.6 16.3 14.4 87 1.3 SW 9 11 5 6 1016.2 1016.2 0.0
18/05:30am 16.6 16.8 14.2 86 1.4 SW 6 7 3 4 1016.1 - 0.0
18/05:00am 17.4 17.2 14.7 84 1.6 WSW 9 9 5 5 1016.2 - 0.0
18/04:30am 17.4 17.2 14.7 84 1.6 SW 9 11 5 6 1016.1 - 0.0
18/04:00am 17.5 17.3 14.8 84 1.6 SW 9 11 5 6 1016.0 - 0.0
18/03:30am 17.9 17.3 14.6 81 1.9 SW 11 13 6 7 1016.0 - 0.0
18/03:00am 18.2 17.7 14.9 81 1.9 SW 11 13 6 7 1016.1 1016.1 0.0
18/02:30am 18.5 17.8 14.2 76 2.5 WSW 11 11 6 6 1016.1 - 0.0
18/02:00am 18.9 18.6 14.4 75 2.6 WSW 9 11 5 6 1016.3 - 0.0
18/01:30am 18.8 18.7 14.9 78 2.3 WSW 9 11 5 6 1016.5 - 0.0
18/01:00am 18.9 18.7 14.8 77 2.4 WSW 9 11 5 6 1016.7 - 0.0
18/12:30am 19.1 19.3 14.8 76 2.5 WSW 7 11 4 6 1016.8 - 0.0
18/12:00am 19.5 19.3 14.7 74 2.8 WSW 9 11 5 6 1017.2 1017.2 0.0
 
Date/Time
EST
Temp
°C
App
Temp
°C
Dew
Point
Rel
Hum
%
Delta-T
°C
Wind Press
QNH
hPa
Press
MSL
hPa
Rain
since 9 am
mm
Dir
 
Spd
km/h
Gust
km/h
Spd
kts
Gust
kts
17/11:30pm 19.5 19.3 14.7 74 2.8 SW 9 13 5 7 1017.2 - 0.0
17/11:00pm 19.9 19.3 14.7 72 3.0 SW 11 15 6 8 1017.3 - 0.0
17/10:30pm 19.7 19.4 14.3 71 3.1 SSW 9 11 5 6 1017.4 - 0.0
17/10:00pm 19.9 19.3 14.7 72 3.0 SW 11 17 6 9 1017.6 - 0.0
17/09:30pm 19.9 19.6 14.5 71 3.1 SW 9 13 5 7 1017.4 - 0.0
17/09:00pm 19.5 19.1 14.1 71 3.1 SSW 9 11 5 6 1017.3 1017.3 0.0
17/08:30pm 20.5 19.9 14.6 69 3.4 SSW 11 17 6 9 1017.1 - 0.0
17/08:00pm 20.6 20.0 14.5 68 3.6 SSW 11 15 6 8 1016.8 - 0.0
17/07:30pm 20.9 19.9 14.5 67 3.7 S 13 17 7 9 1016.6 - 0.0
17/07:00pm 22.0 20.0 15.6 67 3.8 S 20 28 11 15 1016.3 - 0.0
17/06:30pm 22.4 20.5 15.7 66 4.0 SSE 20 26 11 14 1016.0 - 0.0
17/06:00pm 22.6 20.2 15.4 64 4.3 SSE 22 26 12 14 1015.8 1015.8 0.0
17/05:30pm 22.6 19.4 15.2 63 4.4 SE 26 32 14 17 1015.4 - 0.0
17/05:00pm 23.0 20.4 15.8 64 4.3 SE 24 30 13 16 1015.2 - 0.0
17/04:30pm 23.7 21.0 15.5 60 4.9 SE 24 28 13 15 1014.8 - 0.0
17/04:00pm 24.3 21.6 14.7 55 5.7 ESE 22 28 12 15 1014.6 - 0.0
17/03:30pm 24.7 22.0 14.5 53 6.1 ESE 22 28 12 15 1014.6 - 0.0
17/03:00pm 25.2 23.0 14.3 50 6.5 ESE 19 24 10 13 1014.7 1014.7 0.0
17/02:30pm 25.4 23.3 14.8 52 6.3 ESE 19 22 10 12 1014.8 - 0.0

Other Formats:

Comma delimited format used in spreadsheet applications
http://www.bom.gov.au/fwo/IDQ60801/IDQ60801.94580.axf

JavaScript Object Notation format (JSON) in row-major order
http://www.bom.gov.au/fwo/IDQ60801/IDQ60801.94580.json